Top 250   HF   UTC   Spotter   Comment  
UA9KB   14032.1   01 Mar 12:25   RO9S   UBA-DX-CW
UA6AK   28031.3   01 Mar 12:25   RX9SN  
3G0ZC   28475.0   01 Mar 12:25   IK0XBX   QSX 28480.00
EA4IF   7088.0   01 Mar 12:25   EA1BTG   VGCR193 ULTIMAS LLAMADAS
3G0ZC   28475.0   01 Mar 12:25   IZ8GNR   5up (tnx 73)
VR2XMT   24950.0   01 Mar 12:25   OZ3K   new one tnx
ZS1OIN   28540.0   01 Mar 12:24   SV2HTX   Tnx Mr.Oleg--5/9 & 73
K0VXU   1855.2   01 Mar 12:24   VE7GL  
OR5T   28016.3   01 Mar 12:24   LZ2BE  
D3AM   28544.0   01 Mar 12:24   R9SY   tnx QSO 59
EA4IF/P   7088.0   01 Mar 12:24   EA1DMP   VGCR-193
RU0LAX   3507.0   01 Mar 12:24   N0FW   CQ
RC6U   14029.7   01 Mar 12:24   RO9S   UBA-DX-CW
EA8URT   21247.0   01 Mar 12:24   EB1EB   VGTF-062
PU2RPD   28450.0   01 Mar 12:24   PU2TYA  
EA8URT   21247.0   01 Mar 12:23   PT2GTI   pt2gti
EA5RKB/2   7154.0   01 Mar 12:23   EB1ITJ   cz-002 mvz-0066 dme-50297
OD5NH   28417.0   01 Mar 12:23   SQ5HUE  
OT2K   28520.0   01 Mar 12:23   TA2TR  
HB125FMS   28495.0   01 Mar 12:23   HB9FAX   special call cq
J28NC   24900.0   01 Mar 12:23   IW2NIS   tnx fer qso
WP4PHT   28440.0   01 Mar 12:23   MW0ZZK   SES LH
DQ6Q   14028.2   01 Mar 12:23   RO9S   UBA-DX-CW
EX8M   10107.0   01 Mar 12:23   BG3UPA  
CU7MD   24945.0   01 Mar 12:23   UA3QNS  
EC5AHA   7180.0   01 Mar 12:23   EA5SD   ev163
PY2XAT   28466.0   01 Mar 12:30   PY2EJ   BIG PILEUP
8P6NW   28479.0   01 Mar 12:22   PY8FML   CQ TNX FOR CONTACT 59/73
WP4PHT   28440.0   01 Mar 12:22   OE3PFS  
3G0ZC   18078.3   01 Mar 12:22   RW5C   Drifting across the range. lsn
RU4SO   28022.2   01 Mar 12:22   RX9SN  
OD5NH   28417.0   01 Mar 12:22   R1AR   CQ 59 HR
8P6NW   28479.0   01 Mar 12:22   VE1SK  
UA3R   28019.8   01 Mar 12:22   RX9SN  
PA0O   21039.9   01 Mar 12:22   PA4PS   CW
3G0ZC   14200.0   01 Mar 12:22   KE1JF   UP 5 Easy No Wait
R8LA   21020.4   01 Mar 12:22   RT9J   UBA-DX-CW
EA8URT   21247.0   01 Mar 12:21   EA8URT   vgtf.062
EX8M   10107.0   01 Mar 12:21   JR2UBS   CQ
K0WXU   1855.2   01 Mar 12:21   VE7GL  
PY2XAT   28466.0   01 Mar 12:21   EA6FA  
ZD8D   28050.1   01 Mar 12:21   EA3EGB   Tks Nw Mode 1,5/up 73,s
ZD8D   28050.0   01 Mar 12:21   K4IQJ   up 2
VR2XAN   1819.5   01 Mar 12:21   JE1BMJ   CQ DX
IT9DOR   28428.0   01 Mar 12:21   IT9DOR   eu025
EI4JT   14290.0   01 Mar 12:20   SP3MEP  
R2DCG   14017.5   01 Mar 12:20   RO9S   UBA-DX-CW
K0BJ   1847.9   01 Mar 12:20   VE7GL  
SV1JG   14013.2   01 Mar 12:20   RO9S   UBA-DX-CW
J28NC   24900.0   01 Mar 12:19   EA1BDX   CQ up 2
DL7UD   28450.0   01 Mar 12:19   PU2TYA  
G4FOC   10121.1   01 Mar 12:19   G0IBN  
UA9CDC   28010.0   01 Mar 12:19   PG3N   CW
VU2XO   28466.0   01 Mar 12:19   R1AR   cq Patel 58 hr
K1LLR   14300.0   01 Mar 12:19   K1LLR   Intercon net USA
NX6T   1828.1   01 Mar 12:19   VE7GL  
ZS1OIN   28540.0   01 Mar 12:19   R9SY   tnx QSO 58
ON3VK   24958.0   01 Mar 12:19   HI8PLE  
3Z20PMU   18083.1   01 Mar 12:19   UR5LAK   simplex grodziski
DK8ZZ   14034.0   01 Mar 12:18   YU1KT  
TA5FA   28455.1   01 Mar 12:25   PY2EJ   TU 55 IN SA
KG7H   1804.1   01 Mar 12:18   VE7GL  
SO5KG   28525.0   01 Mar 12:18   CT1EXR  
T88XH   3506.0   01 Mar 12:18   JE1BMJ   CQ 599
CT1ILO   7096.0   01 Mar 12:18   CT2ILB   TROFEO HERMANDADES DEL ROCIO
RN4HAB   21017.3   01 Mar 12:18   YT2AAA  
ER1OO   21012.7   01 Mar 12:18   W3LPL   Heard in NH
LY5W   21050.6   01 Mar 12:17   RO9S   UBA-DX-CW
HA0EX   18074.0   01 Mar 12:17   W2PM   CQ
M0PFX   14069.2   01 Mar 12:17   HG0NGT   BPSK31 jo01dm Paul Thurrock
CX2RA   28436.0   01 Mar 12:17   EA6FA  
8P6NW   28479.0   01 Mar 12:17   IK3SCB   SIMPLEX
WD5R   1884.6   01 Mar 12:17   XE1UYS  
LZ1GU   18153.0   01 Mar 12:17   ON3PDX  
3G0ZC   28475.0   01 Mar 12:17   TA2AD   tnx QSO UP 5
EA5YU   21015.3   01 Mar 12:17   YT2AAA  
LX9EG   21047.5   01 Mar 12:17   RO9S   UBA-DX-CW
3G0ZC   14200.0   01 Mar 12:17   N9JTB  
W1ASB   14302.9   01 Mar 12:17   SP3MEP  
EB5JKV   7130.0   01 Mar 12:16   EB5AGR   VGV-001 DME-46001
5H1OC   28452.0   01 Mar 12:16   MW0ZZK   loud
KA6BIM   1831.3   01 Mar 12:16   KI7M  
W1ASB   14303.0   01 Mar 12:16   SQ3PAK   TNX QSO 73 !
RX9SN   28020.8   01 Mar 12:16   RU4SO  
UI3A   21046.0   01 Mar 12:16   RO9S   UBA-DX-CW
4X6TT   28490.0   01 Mar 12:16   SV1NZJ  
EA1GTX   7065.0   01 Mar 12:16   EA7IXJ   DME-32028 VGOU-038
3G0ZC   18078.0   01 Mar 12:16   W3LPL   Heard in NH
D3AM   28544.0   01 Mar 12:15   CT1EJB   Tks QSO Igor 73s
WP4POT   28440.2   01 Mar 12:15   NP3QL   Special Event Samuel Morse House PR
OM8LA   21044.1   01 Mar 12:15   RO9S   UBA-DX-CW
EC1DD/P   7042.0   01 Mar 12:15   EA1IQO   vgpo089
JW9JKA   21263.0   01 Mar 12:15   OK2HB  
CU7MD   24945.0   01 Mar 12:15   K4TR  
U1BD   18143.2   01 Mar 12:15   OE2FFL   59 godd luck
LZ137LO   14017.0   01 Mar 12:15   LZ1ZF   UBA Contest CW
HB9ELE   28450.0   01 Mar 12:15   PU2TYA  
PU5CSF   29460.0   01 Mar 12:15   EA5IJD   GOOD DX- 73
DL9SEV   21041.3   01 Mar 12:15   RO9S   UBA-DX-CW
T88XH   3509.5   01 Mar 12:14   N0FW   CQ
EA4IF/P   7041.0   01 Mar 12:14   EA1DMP   VGCR-193 DIGITALES UP 2
DF9PE   14244.0   01 Mar 12:14   DL0KJ   DL FF114
IY7M   14250.0   01 Mar 12:14   IU2AIY   DX/TEAM MARCONI BARI ITALY
8P6NW   28479.0   01 Mar 12:14   UA3GJM   -----------73!
IZ3SQW   21037.6   01 Mar 12:14   RO9S   UBA-DX-CW
F/SQ6KXZ/M   14300.0   01 Mar 12:14   SQ3PMX   CQ OP.KORNEL
F/SQ6KX   14300.0   01 Mar 12:13   SQ9JKL  
IZ1XBB   14084.0   01 Mar 12:13   IU1APF   GEMINI SPACE PRGR AWD RTTY
EC7TL/P   7106.0   01 Mar 12:13   EA7FMR   QRT
J42CPMV   21070.0   01 Mar 12:13   LU7DUE   tns psk64
US5FA   24894.0   01 Mar 12:13   F8DGY   tnx nw band fb bug decode...
VR2XAN   1819.5   01 Mar 12:13   JE1BMJ   pse call CQ NA
LZ137LO   18130.0   01 Mar 12:12   F4CVQ   Balkan Sports Club
EA4IF/P   7000.0   01 Mar 12:12   EA7BM   IGNACIO PASA FONIA PLIS
LZ137LO   18130.0   01 Mar 12:12   ON3PDX  
3G0ZC   18077.0   01 Mar 12:12   VA3NXM   answers simplex
4X6TT   28490.0   01 Mar 12:12   PY2XAT   CQ SA
OQ5M   14011.5   01 Mar 12:12   R7FO  
W1ASB   14303.0   01 Mar 12:12   SQ3PMX  
D3AM   28544.0   01 Mar 12:12   RV9DC   TKS Igor
3G0ZC   14200.0   01 Mar 12:12   KG2S   UP 5
ZS1OIN   28540.0   01 Mar 12:11   TA2AD   tnx QSO Oleg
ZS1OIN   28539.9   01 Mar 12:11   EA6FA  
UA6GO/MM   24897.6   01 Mar 12:11   R5QA   tnx QSO grid lm66gr
3G0ZC   14079.1   01 Mar 12:11   KK4PFQ   up 1
LZ9W   21026.2   01 Mar 12:11   R8XF  
IW0HQU/P   7138.0   01 Mar 12:11   IZ1NJA   DCI-RM030
HA8VK   14014.0   01 Mar 12:11   SP6DNZ  
ZD8Z   28050.2   01 Mar 12:11   UA9OR   CQ up 28052
JW9JKA   21263.0   01 Mar 12:11   SV1KWD   73
Z35G   21025.3   01 Mar 12:11   R8XF  
HB125FMS   28494.8   01 Mar 12:11   IT9VDQ  
HB125FMS   28495.0   01 Mar 12:11   PU2RDB   73 my friend
SQ4IXM   18161.5   01 Mar 12:10   F4CVQ  
TC7YOTA   28485.0   01 Mar 12:10   DM2AU  
EY7AD   24925.2   01 Mar 12:10   HI8PLE  
IY7M   14250.0   01 Mar 12:10   G1TDN   DX/TEAM MARCONI BARI ITALY
4X6TT   28490.0   01 Mar 12:10   CX9BU   TNX , , , 59 IN URUGUAY , 73
EA5XC   7141.0   01 Mar 12:10   EA5IIC   CA 264 ????LTIMAS LLAMADAS
LX1EA   24928.6   01 Mar 12:10   DL6UAA   my screen WAA but hr UAA
F/SQ6KXZ   14300.0   01 Mar 12:10   SP6NIP   DZIEKI ZA QSO
3G0ZC   14015.0   01 Mar 12:09   W3LPL   Heard in NC and VA
RW0LL   1824.0   01 Mar 12:09   RW0LL  
3G0ZC   14014.0   01 Mar 12:09   LU2FFD   Wkg split UP vry loud
IZ8GGF   24894.0   01 Mar 12:08   F8DGY   ciao sal fb bug cpy napples
LZ5R   21021.6   01 Mar 12:08   R8XF  
IW0HQU/P   7138.0   01 Mar 12:08   IZ8GNR   call correction
LZ2PT   21019.2   01 Mar 12:08   R8XF  
8P6NW   28479.0   01 Mar 12:08   AA1XD  
IW9HQU/P   7138.0   01 Mar 12:07   IZ8GNR   DCI RM030
EC7TL/P   7106.0   01 Mar 12:07   EA7FMR   ultimas llamadas q nos vamos
EA1GTX   7065.0   01 Mar 12:07   EA7IXJ   VGOU-038 DME-32028 u
CX2RA   28436.0   01 Mar 12:07   CT1EWY   59+20 in Porttugal
PU5CSF   28460.0   01 Mar 12:07   DO4MM   TNX 5/7 73
A71EM   21023.3   01 Mar 12:07   W3LPL   Heard in CT
ZS1OIN   28539.9   01 Mar 12:07   YO6DDF   CQ..CQ..Tks for QSO,deep QSB here 73s Val
4X6TT   28490.0   01 Mar 12:07   SV1AVT   AMIR KALHMERA 73 SPIROS
NR5M   1819.2   01 Mar 12:06   KA6BIM  
R8WO   21028.0   01 Mar 12:06   R9WZ   UBA
JW9JKA   21000.0   01 Mar 12:06   RA4CVT   230
4X6TT   28490.0   01 Mar 12:06   PY2WND   5/9 Tnx 73
K7FX   3793.0   01 Mar 12:06   K7FX   Radar + 20
OA4TT   10113.0   01 Mar 12:06   K4TR  
8P6NW   28479.0   01 Mar 12:05   SQ6STI   cq Europe
R2ZBA   28530.0   01 Mar 12:05   CX9BU   TNX , , , 59 IN URUGUAY , 73
CX2RA   28436.0   01 Mar 12:05   SV3ICL   73
4X6TT   28490.0   01 Mar 12:05   EA6FA   amir good day;)
RA3ZSQ   28530.0   01 Mar 12:05   CX9BU   TNX , , , 59 IN URUGUAY , 73
KI7M   1822.1   01 Mar 12:05   KA6BIM  
K7FX   3793.0   01 Mar 12:05   K7FX   + 20 to n.pacific.
OA4TT   10113.0   01 Mar 12:04   JR2UBS   CQ
VR2XMT   24950.0   01 Mar 12:04   EA3KY   57 59 tnx Charlie
DF9PE   14244.0   01 Mar 12:04   MM0GDG   DL FF114
IY7M   18082.0   01 Mar 12:04   9A2SW   9a2sw
R7HF   28021.2   01 Mar 12:04   R8XF  
OR5T   14015.7   01 Mar 12:04   F6AUS   UBA
ZD8D   28050.2   01 Mar 12:04   UN8PY   tnx QSO up
VR2X   1810.0   01 Mar 12:04   JE1BMJ   CQ only NA
AC9S   1829.7   01 Mar 12:04   KA6BIM  
DK8ZZ   14034.2   01 Mar 12:04   YU1AST   uba
VR2XMT   24950.0   01 Mar 12:03   CT2JNK   Tnx"charlie"good DX "73
SN205FC   7155.0   01 Mar 12:03   SQ5HUE  
EA5RKB/P   14195.0   01 Mar 12:03   UA3GJM   -----------73!
8P6NW   28479.1   01 Mar 12:03   K1RX  
TA5FA   28455.0   01 Mar 12:03   F4CVQ  
IW0HQU/P   7138.0   01 Mar 12:03   IT9JGX  
NF8C   1832.8   01 Mar 12:03   KA6BIM  
TA4/OG55W   28042.9   01 Mar 12:03   LY7Z   UBA
EU7A   18089.0   01 Mar 12:03   K1PI   cq
HB125FMS   28495.0   01 Mar 12:03   BD7LMD  
LX1EA   24929.6   01 Mar 12:02   F4FGC   RTTY Tnx for qso Edmond 73
W1/AS1B   14303.0   01 Mar 12:02   SQ5SCZ  
IY7M   14250.0   01 Mar 12:02   CT1EJB   Special Call Tks 73s
HB9FMS   28495.0   01 Mar 12:02   BD7LMD  
UY5YA   24894.0   01 Mar 12:02   F8DGY   fb copy bug key vas...
YL2LW   24975.0   01 Mar 12:01   EA4AAI   BIG SINAL VICTOR RIGA-MADRID
EA5IDL   28468.1   01 Mar 12:01   UT5ERP   cq
CX8TC   28510.0   01 Mar 12:01   9A7C  
W0AIH   1837.2   01 Mar 12:01   KA6BIM  
HI8A   10107.2   01 Mar 12:01   W3LPL   Heard in MA and PA
DK65DARC   14183.0   01 Mar 12:01   EA5IGD   DARC Special Event Station C/o Enric
F6HKA   28027.5   01 Mar 12:01   ON5ZO   CW
D3AM   28544.0   01 Mar 12:01   DO6LE   tnx Igor
EA5XC   7140.0   01 Mar 12:01   EA3HVE  
5Z4/DF3FS   21008.1   01 Mar 12:01   OK2LI   up 1 tnx 73!
WB4WXE   1802.6   01 Mar 12:01   W9RTF  
CX8TC   28510.0   01 Mar 12:00   DH8LAW   thx fer nice QSO, Willi!
CU7MD   24945.0   01 Mar 12:00   G7BXU   cq dx
3G0ZC   14200.0   01 Mar 12:00   K8RUE   tnx new band up 5 no waiting
3G0ZC   18077.0   01 Mar 12:00   DL1AMQ   calling up1, wkg simplex
OD5NH   28417.0   01 Mar 12:00   EA8AZD   5/9 In Gran Canary Isl
TC7YOTA   28475.0   01 Mar 12:00   DH8BQA  
K8BZ   1839.6   01 Mar 12:00   KA6BIM  
PU2TYA   28450.0   01 Mar 12:00   SV3ICL   73
PU5CSF   28460.0   01 Mar 12:00   IV3FGT   73
4X6TT   28490.0   01 Mar 12:00   DM2AU  
3G0ZC   14200.0   01 Mar 11:59   N4XL   QSX 14205.00 USB
K5YAA   1842.5   01 Mar 11:59   KA6BIM  
4L8A   28475.0   01 Mar 11:59   DH8BQA   booming
ZD8D   28050.0   01 Mar 11:59   LZ2LT   tks. up1.
KK6ZM   1845.5   01 Mar 11:59   KA6BIM  
T88XH   7006.1   01 Mar 11:59   BA2BI   fb 599+ tu1
AB8AC   1847.5   01 Mar 11:59   KA6BIM  
K9ILL   14300.0   01 Mar 11:58   K1LLR   Intercon net USA
KC7JEF/MM   24897.8   01 Mar 11:58   G0GYY   tnx Vlad 73.
3G0ZC   14200.0   01 Mar 11:58   KB9ERU   up 5..no waiting
JG8NKJ   3509.5   01 Mar 11:58   W6UC  
TA5FA   28455.0   01 Mar 11:58   DH8BQA  
EA4IF/P   7041.6   01 Mar 11:58   EA5FID   QSX 7043.51 RTTY VGCR193
EA1GTX   7065.0   01 Mar 11:58   EA7IXJ   VGOU-038 u
VR2XMT   24950.0   01 Mar 11:58   EA3HPX  
IW0HQU/P   7138.0   01 Mar 11:58   IZ6CLN   DCI-RM030
F1NGP   24894.0   01 Mar 11:58   F8DGY   bravo pour f1....nice copy bug ! 73
AK5DX   1855.0   01 Mar 11:58   KA6BIM  
T88XU   7006.1   01 Mar 11:58   BA2BI   FB 599+ TU!
EA5IDL   28468.0   01 Mar 11:58   PU2RDB   73 my friend
5Z4/DF3FS   21008.0   01 Mar 11:57   DL4FO   QSX up
3G0ZC   18077.0   01 Mar 11:58   DL1AMQ   calling up, wkg simplex
IW0HQU/P   7138.0   01 Mar 11:58   IZ1MHY   DCI RM030 CQ CQ
WR5O   1859.3   01 Mar 11:57   KA6BIM  
ZS90SARL   24904.9   01 Mar 11:57   R3BT   up
IY7M   18082.0   01 Mar 11:57   EA5DNO  
PQ450RIO   7140.0   01 Mar 11:57   PY1PDF   450 years RIO
3G0ZC   14079.2   01 Mar 11:57   BD7LMD  
W8GNM   1862.8   01 Mar 11:57   KA6BIM  
CT1EEC   7067.0   01 Mar 11:57   EA7DA   HERMANDADES Y PLACA P.
3G0ZC   14205.0   01 Mar 11:57   AA1XD  
JA1NUT   7026.2   01 Mar 11:57   RU0LAX   pse qsy hr 3g0zc
W8MET   1865.0   01 Mar 11:57   KA6BIM  
D3AM   28544.1   01 Mar 11:56   PA3ECZ   Tnx for short contact...